AAL1424 KRDU-KDCA

Flight info

Callsign AAL1424
Flight time 0h 40m
Altitude 27000
Route BEXGO5 BOUSY WAVES CAPSS4
Aircraft B738/M-SDE2E3FGHIRWXY/LB1

Departure

Time 2026-05-08 00:46
Airport Raleigh-Durham International Airport (KRDU)

Arrival

Time 2026-05-08 01:26
Airport Ronald Reagan Washington National Airport (KDCA)
Time Latitude Longitude Altitude Speed Heading
2026-05-08 00:15 35.87931 -78.79198 393 ft 0 kts 135°
2026-05-08 00:38 35.87936 -78.79205 393 ft 2 kts 135°
2026-05-08 00:38 35.87947 -78.79218 392 ft 2 kts 135°
2026-05-08 00:38 35.87957 -78.79231 391 ft 1 kts 135°
2026-05-08 00:39 35.87964 -78.79240 391 ft 2 kts 114°
2026-05-08 00:39 35.87965 -78.79259 390 ft 2 kts 68°
2026-05-08 00:39 35.87961 -78.79267 390 ft 1 kts 44°
2026-05-08 00:39 35.87956 -78.79273 390 ft 0 kts 44°
2026-05-08 00:40 35.87957 -78.79273 390 ft 0 kts 44°
2026-05-08 00:41 35.87957 -78.79272 390 ft 0 kts 44°
2026-05-08 00:41 35.87958 -78.79271 390 ft 0 kts 44°
2026-05-08 00:41 35.87958 -78.79270 390 ft 0 kts 44°
2026-05-08 00:41 35.87962 -78.79269 390 ft 1 kts
2026-05-08 00:42 35.87997 -78.79295 388 ft 0 kts 317°
2026-05-08 00:42 35.87999 -78.79298 388 ft 0 kts 297°
2026-05-08 00:42 35.87994 -78.79317 387 ft 6 kts 246°
2026-05-08 00:42 35.87935 -78.79390 384 ft 15 kts 224°
2026-05-08 00:43 35.87846 -78.79507 382 ft 21 kts 226°
2026-05-08 00:43 35.87730 -78.79653 379 ft 26 kts 227°
2026-05-08 00:43 35.87596 -78.79816 375 ft 27 kts 225°
2026-05-08 00:43 35.87477 -78.79962 371 ft 15 kts 224°
2026-05-08 00:44 35.87418 -78.80033 369 ft 8 kts 224°
2026-05-08 00:44 35.87383 -78.80085 367 ft 6 kts 250°
2026-05-08 00:44 35.87410 -78.80132 365 ft 8 kts 321°
2026-05-08 00:44 35.87468 -78.80164 364 ft 9 kts 18°
2026-05-08 00:45 35.87492 -78.80136 365 ft 5 kts 46°
2026-05-08 00:45 35.87653 -78.79941 369 ft 65 kts 45°
2026-05-08 00:45 35.88131 -78.79353 381 ft 124 kts 44°
2026-05-08 00:45 35.88837 -78.78466 475 ft 160 kts 43°
2026-05-08 00:46 35.89634 -78.77527 1122 ft 156 kts 38°
2026-05-08 00:46 35.90530 -78.76774 1618 ft 167 kts 28°
2026-05-08 00:46 35.91622 -78.76092 2069 ft 178 kts 26°
2026-05-08 00:46 35.92625 -78.75340 2641 ft 179 kts 31°
2026-05-08 00:47 35.93681 -78.74352 2646 ft 193 kts 42°
2026-05-08 00:47 35.94642 -78.73076 2881 ft 214 kts 41°
2026-05-08 00:47 35.95776 -78.71809 3300 ft 226 kts 35°
2026-05-08 00:47 35.97060 -78.70576 3681 ft 241 kts 33°
2026-05-08 00:48 35.98440 -78.69288 4073 ft 255 kts 34°
2026-05-08 00:48 35.99845 -78.67948 4631 ft 262 kts 34°
2026-05-08 00:48 36.01297 -78.66550 5260 ft 266 kts 34°
2026-05-08 00:48 36.02754 -78.65146 5844 ft 271 kts 33°
2026-05-08 00:49 36.04274 -78.63683 6448 ft 277 kts 34°
2026-05-08 00:49 36.05799 -78.62213 7030 ft 283 kts 33°
2026-05-08 00:49 36.07357 -78.60715 7577 ft 291 kts 33°
2026-05-08 00:49 36.08984 -78.59152 8174 ft 297 kts 33°
2026-05-08 00:50 36.10617 -78.57581 8759 ft 304 kts 33°
2026-05-08 00:50 36.12300 -78.55942 9321 ft 311 kts 33°
2026-05-08 00:50 36.13985 -78.54286 9945 ft 316 kts 33°
2026-05-08 00:50 36.15753 -78.52567 10424 ft 328 kts 33°
2026-05-08 00:51 36.17582 -78.50806 10790 ft 342 kts 32°
2026-05-08 00:51 36.19515 -78.48949 11118 ft 358 kts 33°
2026-05-08 00:51 36.21507 -78.47036 11437 ft 374 kts 32°
2026-05-08 00:51 36.23594 -78.45029 11933 ft 383 kts 33°
2026-05-08 00:52 36.25692 -78.43003 12601 ft 388 kts 32°
2026-05-08 00:52 36.27851 -78.40917 13228 ft 393 kts 32°
2026-05-08 00:52 36.30019 -78.38867 13899 ft 397 kts 31°
2026-05-08 00:52 36.32252 -78.36803 14579 ft 401 kts 30°
2026-05-08 00:53 36.34495 -78.34750 15273 ft 404 kts 31°
2026-05-08 00:53 36.36736 -78.32688 15897 ft 409 kts 30°
2026-05-08 00:53 36.39035 -78.30557 16551 ft 412 kts 30°
2026-05-08 00:53 36.41333 -78.28419 17097 ft 418 kts 30°
2026-05-08 00:54 36.43647 -78.26262 17673 ft 423 kts 30°
2026-05-08 00:54 36.46019 -78.24046 18330 ft 424 kts 30°
2026-05-08 00:54 36.48389 -78.21835 18707 ft 434 kts 30°
2026-05-08 00:54 36.50791 -78.19588 19329 ft 436 kts 30°
2026-05-08 00:55 36.53241 -78.17287 19784 ft 443 kts 29°
2026-05-08 00:55 36.55709 -78.14957 20321 ft 447 kts 29°
2026-05-08 00:55 36.58167 -78.12636 20854 ft 450 kts 30°
2026-05-08 00:55 36.60675 -78.10262 21225 ft 457 kts 29°
2026-05-08 00:56 36.63228 -78.07848 21749 ft 459 kts 29°
2026-05-08 00:56 36.65784 -78.05428 22099 ft 467 kts 29°
2026-05-08 00:56 36.68353 -78.02998 22612 ft 469 kts 29°
2026-05-08 00:56 36.70957 -78.00525 23100 ft 472 kts 28°
2026-05-08 00:57 36.73577 -77.98036 23494 ft 477 kts 28°
2026-05-08 00:57 36.76235 -77.95509 24023 ft 478 kts 28°
2026-05-08 00:57 36.78858 -77.93027 24538 ft 479 kts 27°
2026-05-08 00:57 36.81560 -77.90603 25101 ft 474 kts 23°
2026-05-08 00:58 36.84370 -77.88490 25649 ft 466 kts 17°
2026-05-08 00:58 36.87194 -77.86681 26318 ft 457 kts 13°
2026-05-08 00:58 36.90084 -77.84988 26779 ft 457 kts 11°
2026-05-08 00:58 36.92981 -77.83361 26929 ft 460 kts 11°
2026-05-08 00:59 36.95897 -77.81744 26944 ft 461 kts 11°
2026-05-08 00:59 36.98856 -77.80079 26937 ft 458 kts 11°
2026-05-08 00:59 37.01717 -77.78437 26943 ft 456 kts 11°
2026-05-08 00:59 37.04578 -77.76781 26949 ft 455 kts 11°
2026-05-08 01:00 37.07455 -77.75105 26947 ft 455 kts 12°
2026-05-08 01:00 37.10321 -77.73434 26944 ft 459 kts 11°
2026-05-08 01:00 37.13216 -77.71743 26942 ft 457 kts 12°
2026-05-08 01:00 37.16093 -77.70051 26940 ft 454 kts 12°
2026-05-08 01:01 37.18928 -77.68381 26954 ft 455 kts 12°
2026-05-08 01:01 37.21822 -77.66679 26943 ft 456 kts 12°
2026-05-08 01:01 37.24662 -77.65005 26951 ft 456 kts 12°
2026-05-08 01:01 37.27536 -77.63312 26965 ft 457 kts 12°
2026-05-08 01:02 37.30409 -77.61610 26936 ft 455 kts 12°
2026-05-08 01:02 37.33278 -77.59908 26952 ft 454 kts 12°
2026-05-08 01:02 37.36152 -77.58205 26956 ft 455 kts 12°
2026-05-08 01:02 37.39000 -77.56519 26944 ft 454 kts 12°
2026-05-08 01:03 37.41874 -77.54816 26942 ft 457 kts 12°
2026-05-08 01:03 37.44732 -77.53123 26907 ft 456 kts 12°
2026-05-08 01:03 37.47582 -77.51419 26820 ft 444 kts 13°
2026-05-08 01:03 37.50318 -77.49769 26657 ft 434 kts 12°
2026-05-08 01:04 37.53006 -77.48144 26368 ft 426 kts 12°
2026-05-08 01:04 37.55668 -77.46554 25864 ft 425 kts 12°
2026-05-08 01:04 37.58368 -77.45120 25412 ft 413 kts
2026-05-08 01:04 37.61058 -77.43999 24943 ft 402 kts
2026-05-08 01:05 37.63700 -77.43092 24217 ft 397 kts
2026-05-08 01:05 37.66414 -77.42267 23114 ft 404 kts
2026-05-08 01:05 37.69185 -77.41469 22346 ft 410 kts
2026-05-08 01:05 37.71931 -77.40667 22005 ft 404 kts
2026-05-08 01:06 37.74636 -77.39844 21942 ft 393 kts
2026-05-08 01:06 37.77254 -77.39038 21950 ft 391 kts
2026-05-08 01:06 37.79962 -77.38217 21766 ft 404 kts
2026-05-08 01:06 37.82735 -77.37391 21368 ft 418 kts
2026-05-08 01:07 37.85563 -77.36535 20807 ft 421 kts
2026-05-08 01:07 37.88412 -77.35654 20203 ft 421 kts
2026-05-08 01:07 37.91238 -77.34766 19809 ft 414 kts
2026-05-08 01:07 37.94013 -77.33892 19531 ft 404 kts
2026-05-08 01:08 37.96682 -77.33050 19256 ft 394 kts
2026-05-08 01:08 37.99349 -77.32222 18799 ft 390 kts
2026-05-08 01:08 38.01943 -77.31423 18431 ft 384 kts
2026-05-08 01:08 38.04530 -77.30636 17878 ft 384 kts
2026-05-08 01:09 38.07133 -77.29853 17394 ft 380 kts
2026-05-08 01:09 38.09705 -77.29060 16810 ft 382 kts
2026-05-08 01:09 38.12251 -77.28259 16513 ft 373 kts
2026-05-08 01:09 38.14774 -77.27460 15839 ft 377 kts
2026-05-08 01:10 38.17269 -77.26666 15490 ft 370 kts
2026-05-08 01:10 38.19786 -77.25874 14951 ft 369 kts
2026-05-08 01:10 38.22232 -77.25056 14555 ft 365 kts
2026-05-08 01:10 38.24678 -77.24150 14005 ft 366 kts
2026-05-08 01:11 38.27103 -77.23204 13588 ft 362 kts 10°
2026-05-08 01:11 38.29517 -77.22257 13130 ft 359 kts 10°
2026-05-08 01:11 38.31861 -77.21342 12718 ft 355 kts 10°
2026-05-08 01:11 38.34211 -77.20438 12311 ft 345 kts 10°
2026-05-08 01:12 38.36491 -77.19572 11625 ft 343 kts 10°
2026-05-08 01:12 38.38755 -77.18716 11092 ft 335 kts 10°
2026-05-08 01:12 38.40948 -77.17866 11016 ft 324 kts 10°
2026-05-08 01:12 38.43143 -77.17017 10993 ft 331 kts 10°
2026-05-08 01:13 38.45348 -77.16180 10994 ft 337 kts 11°
2026-05-08 01:13 38.47604 -77.15322 10988 ft 336 kts 11°
2026-05-08 01:13 38.49811 -77.14471 10774 ft 330 kts 11°
2026-05-08 01:13 38.52009 -77.13614 10404 ft 323 kts 11°
2026-05-08 01:14 38.54096 -77.12795 10267 ft 303 kts 11°
2026-05-08 01:14 38.56044 -77.12034 10200 ft 289 kts 11°
2026-05-08 01:14 38.57946 -77.11305 9993 ft 281 kts 10°
2026-05-08 01:14 38.59786 -77.10612 9988 ft 270 kts 10°
2026-05-08 01:15 38.61601 -77.09920 9993 ft 273 kts 10°
2026-05-08 01:15 38.63390 -77.09218 9899 ft 268 kts 10°
2026-05-08 01:15 38.65179 -77.08511 9553 ft 268 kts 10°
2026-05-08 01:15 38.66959 -77.07817 9161 ft 269 kts 11°
2026-05-08 01:16 38.68747 -77.07169 8818 ft 265 kts
2026-05-08 01:16 38.70560 -77.06827 8484 ft 260 kts 360°
2026-05-08 01:16 38.72348 -77.06669 8161 ft 257 kts 358°
2026-05-08 01:16 38.74123 -77.06539 7832 ft 255 kts 359°
2026-05-08 01:17 38.75892 -77.06479 7502 ft 251 kts 352°
2026-05-08 01:17 38.77555 -77.06988 7194 ft 242 kts 330°
2026-05-08 01:17 38.78972 -77.08114 6903 ft 237 kts 323°
2026-05-08 01:17 38.80315 -77.09326 6589 ft 236 kts 324°
2026-05-08 01:18 38.81676 -77.10499 6291 ft 234 kts 326°
2026-05-08 01:18 38.83033 -77.11649 5947 ft 240 kts 323°
2026-05-08 01:18 38.84287 -77.12996 5587 ft 246 kts 316°
2026-05-08 01:18 38.85515 -77.14539 5203 ft 247 kts 315°
2026-05-08 01:19 38.86724 -77.16098 4822 ft 247 kts 315°
2026-05-08 01:19 38.87938 -77.17639 4464 ft 245 kts 316°
2026-05-08 01:19 38.89141 -77.19144 4107 ft 241 kts 316°
2026-05-08 01:19 38.90335 -77.20631 3734 ft 236 kts 316°
2026-05-08 01:20 38.91499 -77.22079 3353 ft 232 kts 316°
2026-05-08 01:20 38.92639 -77.23498 3028 ft 225 kts 316°
2026-05-08 01:20 38.93717 -77.24838 2970 ft 208 kts 318°
2026-05-08 01:20 38.94918 -77.25646 2969 ft 188 kts 354°
2026-05-08 01:21 38.96081 -77.25153 2966 ft 177 kts 41°
2026-05-08 01:21 38.96794 -77.23877 2925 ft 180 kts 64°
2026-05-08 01:21 38.96943 -77.22245 2703 ft 193 kts 95°
2026-05-08 01:21 38.96755 -77.20576 2644 ft 185 kts 94°
2026-05-08 01:22 38.96635 -77.18946 2767 ft 181 kts 91°
2026-05-08 01:22 38.96550 -77.17274 2743 ft 194 kts 92°
2026-05-08 01:22 38.96395 -77.15564 2635 ft 189 kts 106°
2026-05-08 01:22 38.95731 -77.14171 2542 ft 184 kts 137°
2026-05-08 01:23 38.94714 -77.13157 2571 ft 183 kts 145°
2026-05-08 01:23 38.93648 -77.12176 2459 ft 191 kts 144°
2026-05-08 01:23 38.92561 -77.11189 2093 ft 194 kts 145°
2026-05-08 01:23 38.91501 -77.10153 1631 ft 192 kts 140°
2026-05-08 01:24 38.90656 -77.08981 1437 ft 172 kts 127°
2026-05-08 01:24 38.90223 -77.07565 990 ft 167 kts 103°
2026-05-08 01:24 38.89765 -77.06335 810 ft 144 kts 142°
2026-05-08 01:24 38.88997 -77.05535 564 ft 142 kts 144°
2026-05-08 01:25 38.88249 -77.04726 431 ft 140 kts 141°
2026-05-08 01:25 38.87390 -77.04115 277 ft 143 kts 164°
2026-05-08 01:25 38.86425 -77.03908 115 ft 139 kts 175°
2026-05-08 01:25 38.85500 -77.03811 18 ft 119 kts 175°
2026-05-08 01:26 38.84959 -77.03758 18 ft 38 kts 177°
2026-05-08 01:26 38.84898 -77.03875 19 ft 10 kts 329°
2026-05-08 01:26 38.84951 -77.03896 20 ft 4 kts 356°
2026-05-08 01:26 38.84981 -77.03899 20 ft 5 kts 355°
2026-05-08 01:27 38.85014 -77.03902 20 ft 3 kts 355°
2026-05-08 01:27 38.85039 -77.03904 20 ft 3 kts 356°
2026-05-08 01:27 38.85073 -77.03907 20 ft 9 kts 355°
2026-05-08 01:27 38.85172 -77.03919 22 ft 16 kts 355°
2026-05-08 01:28 38.85282 -77.03930 21 ft 15 kts 356°
2026-05-08 01:28 38.85413 -77.03941 21 ft 23 kts 355°
2026-05-08 01:28 38.85562 -77.03962 20 ft 19 kts 341°
2026-05-08 01:28 38.85656 -77.04035 19 ft 12 kts 321°
2026-05-08 01:29 38.85731 -77.04112 19 ft 9 kts 305°
2026-05-08 01:29 38.85732 -77.04179 21 ft 10 kts 253°
2026-05-08 01:29 38.85702 -77.04299 24 ft 13 kts 254°
2026-05-08 01:29 38.85651 -77.04356 26 ft 7 kts 196°
2026-05-08 01:30 38.85640 -77.04359 26 ft 0 kts 194°